Torna al catalogo

COSMOS 1759

AttivoNavigazionePO
NORAD 16798·PAYLOAD·🇷🇺 Russia

Lanciato Jun 18, 1986 da Plesetsk Cosmodrome

Loading…

Prossimi Passaggi (prossime 24 ore)

TLE

AggiornatoSource: Space-Track

Epoca: Sep 14, 2026, 22:14 UTC

1 16798U 86047A   26257.92677840  .00000046  00000-0  32156-4 0  9992
2 16798  82.9190 121.7538 0024787   6.8425   9.4213 13.75207463 19032

Traccia COSMOS 1759 in tempo reale con AllMySat

Download on the App Store